Change the Weather History Date:

Thursday, October 4, 2012

  Actual Average (KAPC) Record (KAPC)
Temperature  
Mean Temperature 62 °F 61 °F  
Max Temperature 69 °F 77 °F 94 °F (2014)
Min Temperature 55 °F 45 °F 35 °F (2009)
Degree Days  
Heating Degree Days 3    
Month to date heating degree days  
Since 1 July heating degree days  
Cooling Degree Days 0    
Month to date cooling degree days  
Year to date cooling degree days  
Growing Degree Days 12 (Base 50)    
Moisture  
Dew Point 53 °F    
Average Humidity 78    
Maximum Humidity 94    
Minimum Humidity 52    
Precipitation  
Precipitation 0.00 in - 0.25 in (2011)
Month to date precipitation  
Year to date precipitation  
Since 1 July precipitation  
Sea Level Pressure  
Sea Level Pressure 30.09 in    
Wind  
Wind Speed 7 mph (WNW)    
Max Wind Speed 14 mph    
Max Gust Speed 20 mph    
Visibility 10 miles    
Events      
T = Trace of Precipitation, MM = Missing Value Source: NWS Daily Summary

Daily Weather History Graph

Daily Weather History Graph

Search for Another Location

Airport or City:

Trip Planner

Search our weather history database for the weather conditions in past years. The results will help you decide how hot, cold, wet, or windy it might be!

Date:

Astronomy

Oct. 04, 2012 Rise Set
Actual Time 7:09 AM PDT 6:47 PM PDT
Civil Twilight 6:43 AM PDT 7:14 PM PDT
Nautical Twilight 6:12 AM PDT 7:44 PM PDT
Astronomical Twilight 5:41 AM PDT 8:15 PM PDT
Moon 9:31 PM PDT (10/4) 11:27 AM PDT (10/4)
Length of Visible Light 12h 31m
Length of Day
11h 38m
Waning Gibbous, 81% of the Moon is Illuminated
Oct 4
Waning Gibbous
Oct 8
Last Quarter
Oct 15
New
Oct 21
First Quarter
Oct 29
Full

Hourly Weather History & Observations

Time (PDT) Temp. Dew Point Humidity Pressure Visibility Wind Dir Wind Speed Gust Speed Precip Events Conditions
12:15 AM 57.2 °F 55.4 °F 94% 30.02 in 5.0 mi NW 6.9 mph - N/A   Overcast
12:35 AM 57.2 °F 53.6 °F 88% 30.02 in 7.0 mi WNW 6.9 mph - N/A   Overcast
12:55 AM 57.2 °F 53.6 °F 88% 30.02 in 10.0 mi WNW 5.8 mph - N/A   Overcast
1:15 AM 57.2 °F 53.6 °F 88% 30.03 in 10.0 mi NW 5.8 mph - N/A   Overcast
1:35 AM 57.2 °F 53.6 °F 88% 30.03 in 10.0 mi NW 5.8 mph - N/A   Overcast
1:55 AM 57.2 °F 53.6 °F 88% 30.03 in 10.0 mi WNW 6.9 mph - N/A   Overcast
2:15 AM 57.2 °F 53.6 °F 88% 30.04 in 10.0 mi NW 5.8 mph - N/A   Overcast
2:35 AM 57.2 °F 53.6 °F 88% 30.04 in 10.0 mi NW 5.8 mph - N/A   Overcast
2:55 AM 57.2 °F 53.6 °F 88% 30.03 in 10.0 mi West 6.9 mph - N/A   Overcast
3:15 AM 59.0 °F 53.6 °F 82% 30.03 in 10.0 mi West 8.1 mph - N/A   Overcast
3:35 AM 57.2 °F 53.6 °F 88% 30.04 in 10.0 mi West 6.9 mph - N/A   Overcast
3:55 AM 57.2 °F 53.6 °F 88% 30.04 in 10.0 mi West 6.9 mph - N/A   Overcast
4:15 AM 57.2 °F 53.6 °F 88% 30.04 in 10.0 mi West 9.2 mph - N/A   Overcast
4:35 AM 57.2 °F 53.6 °F 88% 30.04 in 10.0 mi WNW 5.8 mph - N/A   Overcast
4:55 AM 57.2 °F 53.6 °F 88% 30.04 in 10.0 mi West 5.8 mph - N/A   Overcast
5:15 AM 57.2 °F 53.6 °F 88% 30.05 in 10.0 mi WNW 6.9 mph - N/A   Overcast
5:35 AM 59.0 °F 53.6 °F 82% 30.05 in 10.0 mi WNW 4.6 mph - N/A   Overcast
5:55 AM 57.2 °F 53.6 °F 88% 30.06 in 10.0 mi WNW 9.2 mph - N/A   Overcast
6:15 AM 59.0 °F 53.6 °F 82% 30.07 in 10.0 mi West 6.9 mph - N/A   Overcast
6:35 AM 59.0 °F 53.6 °F 82% 30.07 in 10.0 mi WNW 3.5 mph - N/A   Overcast
6:55 AM 59.0 °F 53.6 °F 82% 30.07 in 10.0 mi WSW 6.9 mph - N/A   Overcast
7:15 AM 59.0 °F 53.6 °F 82% 30.07 in 10.0 mi WSW 5.8 mph - N/A   Overcast
7:35 AM 59.0 °F 53.6 °F 82% 30.08 in 10.0 mi West 4.6 mph - N/A   Overcast
7:55 AM 59.0 °F 53.6 °F 82% 30.08 in 10.0 mi West 5.8 mph - N/A   Overcast
8:15 AM 59.0 °F 53.6 °F 82% 30.09 in 10.0 mi West 6.9 mph - N/A   Overcast
8:35 AM 59.0 °F 53.6 °F 82% 30.10 in 10.0 mi WNW 5.8 mph - N/A   Overcast
8:55 AM 59.0 °F 53.6 °F 82% 30.10 in 10.0 mi WNW 6.9 mph - N/A   Overcast
9:15 AM 59.0 °F 53.6 °F 82% 30.11 in 10.0 mi WNW 4.6 mph - N/A   Overcast
9:35 AM 59.0 °F 53.6 °F 82% 30.11 in 10.0 mi WSW 5.8 mph - N/A   Overcast
9:55 AM 59.0 °F 53.6 °F 82% 30.12 in 10.0 mi West 4.6 mph - N/A   Overcast
10:15 AM 60.8 °F 53.6 °F 77% 30.13 in 10.0 mi West 3.5 mph - N/A   Overcast
10:35 AM 60.8 °F 53.6 °F 77% 30.13 in 10.0 mi NW 3.5 mph - N/A   Overcast
10:55 AM 62.6 °F 53.6 °F 72% 30.13 in 10.0 mi West 8.1 mph - N/A   Overcast
11:15 AM 62.6 °F 53.6 °F 72% 30.14 in 10.0 mi NW 3.5 mph - N/A   Overcast
11:35 AM 64.4 °F 53.6 °F 68% 30.14 in 10.0 mi WNW 8.1 mph - N/A   Overcast
11:55 AM 64.4 °F 53.6 °F 68% 30.14 in 10.0 mi NW 5.8 mph - N/A   Overcast
12:15 PM 64.4 °F 53.6 °F 68% 30.14 in 10.0 mi NW 5.8 mph - N/A   Overcast
12:35 PM 66.2 °F 53.6 °F 64% 30.13 in 10.0 mi WNW 4.6 mph - N/A   Overcast
12:55 PM 66.2 °F 53.6 °F 64% 30.13 in 10.0 mi SW 6.9 mph - N/A   Scattered Clouds
1:15 PM 68.0 °F 53.6 °F 60% 30.12 in 10.0 mi West 10.4 mph - N/A   Scattered Clouds
1:35 PM 68.0 °F 53.6 °F 60% 30.11 in 10.0 mi West 8.1 mph - N/A   Partly Cloudy
1:55 PM 68.0 °F 53.6 °F 60% 30.11 in 10.0 mi NW 9.2 mph - N/A   Clear
2:15 PM 68.0 °F 53.6 °F 60% 30.11 in 10.0 mi NW 8.1 mph 16.1 mph N/A   Clear
2:35 PM 69.8 °F 53.6 °F 56% 30.10 in 10.0 mi West 6.9 mph - N/A   Clear
2:55 PM 69.8 °F 53.6 °F 56% 30.10 in 10.0 mi WNW 6.9 mph - N/A   Clear
3:15 PM 69.8 °F 53.6 °F 56% 30.10 in 10.0 mi WNW 10.4 mph 18.4 mph N/A   Clear
3:35 PM 68.0 °F 53.6 °F 60% 30.10 in 10.0 mi West 9.2 mph 16.1 mph N/A   Clear
3:55 PM 68.0 °F 51.8 °F 56% 30.10 in 10.0 mi WNW 8.1 mph - N/A   Clear
4:15 PM 68.0 °F 50.0 °F 52% 30.10 in 10.0 mi West 12.7 mph - N/A   Clear
4:35 PM 66.2 °F 53.6 °F 64% 30.10 in 10.0 mi WNW 13.8 mph 17.3 mph N/A   Clear
4:55 PM 64.4 °F 51.8 °F 64% 30.10 in 9.0 mi WNW 8.1 mph 19.6 mph N/A   Clear
5:15 PM 64.4 °F 51.8 °F 64% 30.10 in 9.0 mi WNW 10.4 mph 17.3 mph N/A   Clear
5:35 PM 62.6 °F 51.8 °F 68% 30.11 in 9.0 mi WNW 11.5 mph 19.6 mph N/A   Partly Cloudy
5:55 PM 60.8 °F 51.8 °F 72% 30.11 in 9.0 mi WNW 11.5 mph 18.4 mph N/A   Clear
6:15 PM 59.0 °F 51.8 °F 77% 30.11 in 8.0 mi WNW 9.2 mph - N/A   Partly Cloudy
6:35 PM 59.0 °F 51.8 °F 77% 30.11 in 8.0 mi WNW 9.2 mph - N/A   Mostly Cloudy
7:15 PM 57.2 °F 51.8 °F 82% 30.12 in 10.0 mi WNW 6.9 mph - N/A   Overcast
7:35 PM 57.2 °F 51.8 °F 82% 30.12 in 10.0 mi NW 6.9 mph - N/A   Overcast
7:55 PM 57.2 °F 51.8 °F 82% 30.12 in 10.0 mi NW 6.9 mph - N/A   Overcast
8:15 PM 55.4 °F 50.0 °F 82% 30.12 in 10.0 mi NW 5.8 mph - N/A   Overcast
8:35 PM 55.4 °F 50.0 °F 82% 30.12 in 10.0 mi NW 5.8 mph - N/A   Overcast
8:55 PM 55.4 °F 50.0 °F 82% 30.13 in 10.0 mi NW 4.6 mph - N/A   Overcast
9:15 PM 55.4 °F 50.0 °F 82% 30.13 in 10.0 mi NW 4.6 mph - N/A   Overcast
9:35 PM 55.4 °F 50.0 °F 82% 30.14 in 10.0 mi NW 4.6 mph - N/A   Overcast
9:55 PM 55.4 °F 51.8 °F 88% 30.14 in 10.0 mi NW 4.6 mph - N/A   Overcast
10:15 PM 55.4 °F 51.8 °F 88% 30.14 in 9.0 mi NW 4.6 mph - N/A   Overcast
10:35 PM 55.4 °F 51.8 °F 88% 30.14 in 9.0 mi NW 4.6 mph - N/A   Overcast
10:55 PM 55.4 °F 51.8 °F 88% 30.15 in 10.0 mi NW 5.8 mph - N/A   Overcast
11:15 PM 55.4 °F 50.0 °F 82% 30.15 in 9.0 mi NW 5.8 mph - N/A   Overcast
11:35 PM 55.4 °F 50.0 °F 82% 30.15 in 9.0 mi NW 4.6 mph - N/A   Overcast
11:55 PM 55.4 °F 50.0 °F 82% 30.15 in 9.0 mi NW 5.8 mph - N/A   Overcast